[[{"header":{"parameterUnit":"m.s-1","parameterCategory":1,"la1":30.2991,"la2":30.254,"lo1":-89.0895,"lo2":-89.0444,"dy":0.0017,"dx":0.0017,"nx":28,"ny":28,"refTime":"2023-09-16T21:00:00:Z","depth":0,"parameterNumber":2,"parameterNumberName":"U-component_of_WINDS"},"data":[0,0,0,0,0,0,0,0,0,0,0,0,0,0,0,0,0,0,0,0,0,0,0,0,0,0,0,0,0,0,0,0,0,0,0,0,0,0,0,0,0,0,0,0,0,0,0,0,0,0,0,0,0,0,0,0,0,0,-2.8841,-2.8842,0,-2.8902,-2.8902,-2.8903,-2.8783,-2.878,-2.8776,-2.8772,-2.8836,-2.8841,-2.8846,0,0,0,0,0,0,0,0,0,0,0,0,0,-2.8623,-2.8627,-2.8841,-2.8842,-2.8843,-2.8902,-2.8903,-2.8903,-2.8784,-2.8779,-2.8775,-2.877,-2.8834,-2.884,-2.8847,0,0,0,0,0,0,0,0,0,0,0,0,0,-2.8704,-2.8629,-2.8841,-2.879,-2.8786,-2.8902,-2.8903,-2.8904,-2.8785,-2.8779,-2.8773,-2.8768,-2.8832,-2.884,-2.8848,-2.9016,0,0,-2.8872,-2.8876,0,0,0,0,0,0,0,0,-2.87,-2.8712,-2.8797,-2.8794,-2.879,-2.8829,-2.8849,-2.8941,-2.8787,-2.8786,-2.8772,-2.8765,-2.8839,-2.8846,-2.887,-2.9019,-2.9022,-2.8873,-2.8878,-2.8882,-2.8884,0,0,0,0,0,0,0,-2.8694,-2.8709,-2.8865,-2.8798,-2.8794,-2.8765,-2.877,-2.8866,-2.8845,-2.8785,-2.8777,-2.8785,-2.8835,-2.8863,-2.8871,-2.9022,-2.8873,-2.888,-2.8885,-2.8888,-2.9312,-2.9318,0,0,0,0,0,0,-2.8695,-2.8705,-2.8863,-2.8867,-2.8729,-2.8773,-2.8779,-2.8822,-2.8843,-2.8841,-2.879,-2.878,-2.8852,-2.8861,-2.8873,-2.9071,-2.8881,-2.8889,-2.8894,-2.9305,-2.9313,-2.932,0,0,0,0,0,0,-2.869,-2.871,-2.8861,-2.8784,-2.8801,-2.8783,-2.8833,-2.8827,-2.8854,-2.8847,-2.8843,-2.8822,-2.8847,-2.8861,-2.8981,-2.9071,-2.8893,-2.89,-2.9298,-2.9308,-2.9316,-2.9469,0,0,0,0,0,0,-2.8685,-2.8709,-2.8773,-2.8786,-2.8805,-2.8969,-2.8839,-2.8832,-2.8868,-2.8854,-2.8876,-2.8874,-2.8844,-2.8969,-2.8989,-2.9079,-2.8906,-2.9289,-2.9302,-2.9313,-2.9456,-2.9483,-2.9506,0,0,0,0,0,-2.8677,-2.8814,-2.8777,-2.8797,-2.8885,-2.8974,-2.8985,-2.8948,-2.8876,-2.894,-2.8935,-2.8873,-2.9058,-2.8983,-2.9004,-2.9098,-2.9284,-2.9298,-2.9312,-2.9445,-2.9478,-2.9505,0,0,0,0,0,0,-2.8813,-2.8815,-2.8774,-2.8919,-2.8947,-2.8954,-2.9034,-2.8983,-2.9034,-2.9019,-2.897,-2.8976,-2.9106,-2.9113,-2.903,-2.9261,-2.9159,-2.9178,-2.9252,-2.9283,-2.9308,-2.9304,-2.8913,0,0,0,0,0,-2.886,-2.8932,-2.8929,-2.9058,-2.9074,-2.9052,-2.9089,-2.9057,-2.9085,-2.9097,-2.9101,-2.9131,-2.9195,-2.9239,-2.9298,-2.9455,-2.9459,-2.953,-2.9555,-2.9576,-2.9594,-2.9678,-2.971,-2.9367,-2.9367,-2.9367,0,0,-2.8957,-2.8967,-2.9016,-2.9085,-2.9103,-2.918,-2.9063,-2.9148,-2.9205,-2.911,-2.9224,-2.9228,-2.9257,-2.9397,-2.9458,-2.9407,-2.9689,-2.9594,-2.9611,-2.9618,-2.9696,-2.9728,-2.9757,-2.9377,-2.9375,-2.9374,0,0,-2.9175,-2.9189,-2.9297,-2.9318,-2.9346,-2.933,-2.9356,-2.937,-2.9369,-2.9482,-2.9412,-2.9478,-2.959,-2.9615,-2.9642,-2.9866,-2.9811,-2.9886,-3.0018,-3.01,-3.0127,-3.0151,-3.0232,-3.0261,-2.9904,-2.9904,-2.9904,0,-2.9293,-2.9405,-2.9359,-2.945,-2.9483,-2.9399,-2.9509,-2.9531,-2.9578,-2.9602,-2.9543,-2.9682,-2.9696,-2.984,-2.9895,-2.9919,-2.9948,-2.9885,-3.0126,-3.015,-3.0171,-3.0248,-3.0279,-2.9913,-2.9912,-2.9911,-2.991,0,-2.9549,-2.9627,-2.9711,-2.9758,-2.98,-2.99,-2.987,-2.9917,-2.9881,-2.9872,-2.9987,-3.0001,-3.0061,-3.0092,-3.0059,-3.0232,-3.0199,-3.0134,-3.0031,-3.0214,-3.0285,-3.0314,-2.9926,-2.9923,-2.992,-2.9918,0,0,-2.9856,-2.9875,-2.9907,-2.9927,-2.9952,-3.0012,-3.0107,-3.0165,-3.0208,-3.0242,-3.0321,-3.0417,-3.0357,-3.0388,-3.0355,-3.0428,-3.0605,-3.0353,-3.0353,-3.0401,-3.0798,-3.0848,-3.0883,-3.0568,-3.0573,-3.0577,-3.0796,0,-3.0072,-3.0237,-3.0198,-3.0361,-3.0433,-3.0354,-3.0437,-3.0461,-3.0454,-3.0514,-3.0505,-3.0575,-3.0489,-3.0507,-3.0575,-3.057,-3.0685,-3.0553,-3.0643,-3.0646,-3.064,-3.092,-3.0974,-3.118,-3.0823,-3.0828,-3.0831,0,-3.0348,-3.0392,-3.0562,-3.0574,-3.0603,-3.0679,-3.0729,-3.0787,-3.0812,-3.0801,-3.0835,-3.0788,-3.0883,-3.0776,-3.0906,-3.0817,-3.0851,-3.0854,-3.0861,-3.087,-3.0752,-3.0939,-3.1244,-3.1276,-3.0875,-3.0871,-3.0868,0,-3.0557,-3.0659,-3.0774,-3.0793,-3.081,-3.0865,-3.0874,-3.0894,-3.0931,-3.0974,-3.0998,-3.1052,-3.1082,-3.1125,-3.1094,-3.1019,-3.1229,-3.112,-3.1224,-3.1225,-3.1274,-3.1272,-3.1592,-3.1293,-3.1292,-3.1292,-3.1291,0,-3.0804,-3.0912,-3.0868,-3.0939,-3.1057,-3.101,-3.1128,-3.1128,-3.1146,-3.1216,-3.1149,-3.1216,-3.117,-3.1233,-3.1209,-3.132,-3.1334,-3.1329,-3.1322,-3.1336,-3.1337,-3.136,-3.1345,-3.13,-3.1298,-3.1296,-3.1295,0,-3.1059,-3.1034,-3.1154,-3.1159,-3.1163,-3.125,-3.1254,-3.132,-3.1306,-3.1395,-3.1414,-3.1393,-3.1464,-3.1436,-3.1511,-3.1495,-3.1638,-3.1611,-3.163,-3.1624,-3.173,-3.1721,-3.2077,-3.2122,-3.1793,-3.1796,-3.1798,0,-3.122,-3.13,-3.1314,-3.1355,-3.137,-3.1437,-3.1474,-3.1431,-3.1473,-3.1507,-3.1569,-3.1633,-3.1683,-3.1799,-3.1792,-3.1848,-3.1823,-3.1944,-3.1832,-3.1844,-3.1827,-3.1824,-3.1832,-3.1967,-3.1971,-3.1974,-3.1977,0,-3.1508,-3.1491,-3.1547,-3.1599,-3.1645,-3.1684,-3.1717,-3.1755,-3.1713,-3.1763,-3.1834,-3.1872,-3.1948,-3.2013,-3.2063,-3.2073,-3.2019,-3.2012,-3.2039,-3.2056,-3.2065,-3.2063,-3.1693,-3.2005,-3.2002,-3.2,-3.1998,-3.1997,-3.1722,-3.179,-3.181,-3.1874,-3.1894,-3.1926,-3.1988,-3.1982,-3.204,-3.2099,-3.2069,-3.2152,-3.2174,-3.2235,-3.2252,-3.2316,-3.2269,-3.2309,-3.2319,-3.233,-3.2345,-3.2052,-3.2325,-3.2324,-3.2323,-3.2323,-3.2322,0,-3.2008,-3.2016,-3.2076,-3.2124,-3.2175,-3.2117,-3.215,-3.2197,-3.227,-3.2295,-3.2344,-3.2426,-3.2488,-3.2484,-3.2542,-3.2594,-3.257,-3.261,-3.2607,-3.2611,-3.2383,-3.2354,-3.2628,-3.2628,-3.2628,-3.2628,-3.2628,-3.2628,-3.2163,-3.2275,-3.226,-3.2382,-3.2389,-3.2469,-3.2493,-3.2522,-3.2542,-3.2635,-3.2687,-3.2683,-3.2696,-3.2754,-3.2809,-3.2806,-3.2831,-3.2881,-3.2869,-3.2657,-3.2627,-3.2598,-3.2571,-3.2886,-3.2886,-3.3092,-3.3094,-3.3095]},{"header":{"parameterUnit":"m.s-1","parameterCategory":1,"la1":30.2991,"la2":30.254,"lo1":-89.0895,"lo2":-89.0444,"dy":0.0017,"dx":0.0017,"nx":28,"ny":28,"refTime":"2023-09-16T21:00:00:Z","depth":0,"parameterNumber":3,"parameterNumberName":"V-component_of_WINDS"},"data":[0,0,0,0,0,0,0,0,0,0,0,0,0,0,0,0,0,0,0,0,0,0,0,0,0,0,0,0,0,0,0,0,0,0,0,0,0,0,0,0,0,0,0,0,0,0,0,0,0,0,0,0,0,0,0,0,0,0,-3.704,-3.7041,0,-3.712,-3.712,-3.7121,-3.7068,-3.7066,-3.7063,-3.7061,-3.7141,-3.7145,-3.7149,0,0,0,0,0,0,0,0,0,0,0,0,0,-3.6841,-3.6845,-3.704,-3.7041,-3.7042,-3.7119,-3.712,-3.7122,-3.7068,-3.7065,-3.7063,-3.706,-3.7139,-3.7144,-3.715,0,0,0,0,0,0,0,0,0,0,0,0,0,-3.6924,-3.6846,-3.704,-3.7025,-3.7025,-3.7119,-3.7121,-3.7122,-3.7069,-3.7065,-3.7062,-3.7058,-3.7137,-3.7144,-3.715,-3.7264,0,0,-3.717,-3.7173,0,0,0,0,0,0,0,0,-3.692,-3.6932,-3.7026,-3.7026,-3.7026,-3.708,-3.7079,-3.7169,-3.707,-3.7052,-3.7061,-3.7057,-3.7123,-3.7131,-3.7154,-3.7267,-3.7271,-3.7171,-3.7175,-3.7178,-3.718,0,0,0,0,0,0,0,-3.6914,-3.6928,-3.7072,-3.7028,-3.7027,-3.7014,-3.7021,-3.7096,-3.7107,-3.7053,-3.705,-3.706,-3.7122,-3.7147,-3.7155,-3.7272,-3.7171,-3.7177,-3.7181,-3.7183,-3.7481,-3.7485,0,0,0,0,0,0,-3.691,-3.6924,-3.7069,-3.7074,-3.6963,-3.702,-3.7029,-3.7066,-3.7106,-3.7109,-3.7063,-3.7057,-3.7138,-3.7147,-3.7158,-3.7292,-3.7178,-3.7184,-3.7188,-3.7477,-3.7482,-3.7487,0,0,0,0,0,0,-3.6906,-3.6923,-3.7066,-3.6998,-3.7015,-3.7027,-3.707,-3.707,-3.7095,-3.7113,-3.7115,-3.7087,-3.7135,-3.7148,-3.7238,-3.7294,-3.7187,-3.7193,-3.7473,-3.7479,-3.7484,-3.7563,0,0,0,0,0,0,-3.69,-3.6922,-3.6966,-3.6999,-3.7019,-3.7145,-3.7073,-3.7074,-3.7106,-3.71,-3.7136,-3.7138,-3.7134,-3.7228,-3.7244,-3.7301,-3.7198,-3.7468,-3.7475,-3.7483,-3.7555,-3.7571,-3.7584,0,0,0,0,0,-3.6893,-3.6985,-3.6968,-3.6986,-3.7074,-3.7149,-3.716,-3.7153,-3.7111,-3.7155,-3.7167,-3.7137,-3.7286,-3.7238,-3.7255,-3.7315,-3.7464,-3.7473,-3.7482,-3.7549,-3.7568,-3.7584,0,0,0,0,0,0,-3.6958,-3.6989,-3.6971,-3.7076,-3.711,-3.714,-3.7195,-3.7173,-3.7219,-3.7211,-3.72,-3.7208,-3.7302,-3.7317,-3.7263,-3.7427,-3.7368,-3.7381,-3.7413,-3.7431,-3.7445,-3.7439,-3.7203,0,0,0,0,0,-3.6984,-3.7043,-3.7067,-3.7157,-3.7175,-3.7182,-3.7214,-3.7206,-3.7241,-3.7255,-3.7273,-3.7307,-3.7361,-3.7397,-3.7448,-3.7557,-3.7564,-3.7607,-3.7622,-3.7633,-3.7645,-3.7703,-3.7722,-3.7516,-3.7516,-3.7516,0,0,-3.7039,-3.7064,-3.7101,-3.7171,-3.7196,-3.7256,-3.7195,-3.7261,-3.7306,-3.7264,-3.735,-3.7364,-3.7401,-3.7501,-3.7546,-3.7517,-3.7703,-3.7645,-3.7654,-3.7659,-3.7714,-3.7734,-3.7751,-3.7522,-3.7521,-3.752,0,0,-3.7171,-3.7195,-3.7273,-3.73,-3.7339,-3.7343,-3.7361,-3.7394,-3.7402,-3.7488,-3.7458,-3.751,-3.7604,-3.7631,-3.7658,-3.7799,-3.7773,-3.7815,-3.7891,-3.7947,-3.7964,-3.7978,-3.8028,-3.8046,-3.7826,-3.7827,-3.7827,0,-3.7234,-3.7325,-3.7316,-3.7385,-3.7415,-3.7381,-3.7459,-3.7485,-3.7539,-3.7561,-3.7528,-3.7644,-3.7667,-3.7772,-3.7806,-3.7829,-3.7849,-3.7811,-3.7962,-3.7976,-3.799,-3.8037,-3.8056,-3.7832,-3.7831,-3.783,-3.783,0,-3.74,-3.7463,-3.7521,-3.7574,-3.7612,-3.7685,-3.7686,-3.7725,-3.7713,-3.772,-3.7807,-3.7833,-3.7888,-3.7913,-3.7902,-3.8016,-3.7997,-3.7964,-3.7904,-3.8014,-3.8058,-3.8077,-3.7839,-3.7837,-3.7835,-3.7834,0,0,-3.7575,-3.7622,-3.7643,-3.7666,-3.7707,-3.7755,-3.7826,-3.788,-3.7913,-3.7951,-3.801,-3.809,-3.8059,-3.8089,-3.808,-3.813,-3.8239,-3.809,-3.8091,-3.8117,-3.8366,-3.8391,-3.8412,-3.8223,-3.8226,-3.8229,-3.8363,0,-3.7708,-3.7833,-3.7826,-3.7943,-3.8,-3.7968,-3.803,-3.8061,-3.8069,-3.8119,-3.8127,-3.8184,-3.8139,-3.8157,-3.8205,-3.8216,-3.8289,-3.8206,-3.8277,-3.8279,-3.8268,-3.8435,-3.8462,-3.8587,-3.838,-3.8383,-3.8385,0,-3.788,-3.7924,-3.8047,-3.8078,-3.8102,-3.8157,-3.8206,-3.8254,-3.8288,-3.829,-3.8324,-3.8307,-3.8378,-3.8317,-3.8414,-3.8358,-3.8386,-3.8396,-3.8401,-3.8407,-3.8339,-3.8446,-3.8627,-3.8646,-3.8412,-3.841,-3.8408,0,-3.7995,-3.8085,-3.8169,-3.819,-3.8229,-3.8268,-3.8286,-3.8316,-3.8349,-3.8392,-3.8412,-3.8463,-3.849,-3.8529,-3.8526,-3.8482,-3.8624,-3.8563,-3.8627,-3.8628,-3.8659,-3.8657,-3.8847,-3.8678,-3.8677,-3.8677,-3.8677,0,-3.8144,-3.822,-3.8221,-3.8273,-3.8357,-3.8348,-3.8431,-3.8444,-3.8472,-3.8525,-3.85,-3.8551,-3.8544,-3.8594,-3.8592,-3.8673,-3.8685,-3.8689,-3.8687,-3.8691,-3.869,-3.8709,-3.87,-3.8682,-3.8681,-3.868,-3.8679,0,-3.8286,-3.829,-3.838,-3.8409,-3.8418,-3.8478,-3.8502,-3.8551,-3.8557,-3.8625,-3.864,-3.8649,-3.8708,-3.8708,-3.8775,-3.8773,-3.8871,-3.886,-3.886,-3.8858,-3.8922,-3.8916,-3.9131,-3.9158,-3.8971,-3.8973,-3.8974,0,-3.8381,-3.8439,-3.8474,-3.8508,-3.8528,-3.8584,-3.8617,-3.861,-3.8646,-3.8688,-3.8732,-3.8788,-3.8832,-3.8926,-3.8938,-3.8989,-3.8978,-3.905,-3.8986,-3.8987,-3.8979,-3.8975,-3.8981,-3.9063,-3.9065,-3.9066,-3.9068,0,-3.8549,-3.8548,-3.8597,-3.8647,-3.8687,-3.8726,-3.8762,-3.8791,-3.8788,-3.8829,-3.8889,-3.8923,-3.8991,-3.9046,-3.9095,-3.9112,-3.909,-3.9088,-3.9105,-3.911,-3.9107,-3.9109,-3.8894,-3.9083,-3.9082,-3.908,-3.908,-3.9079,-3.867,-3.8719,-3.8752,-3.8807,-3.8833,-3.8867,-3.8914,-3.8926,-3.8975,-3.903,-3.9023,-3.9089,-3.912,-3.9183,-3.9205,-3.9256,-3.9231,-3.9256,-3.9262,-3.9269,-3.9276,-3.9099,-3.9265,-3.9264,-3.9264,-3.9263,-3.9263,0,-3.8836,-3.8855,-3.8906,-3.8957,-3.9,-3.8976,-3.9014,-3.9051,-3.911,-3.9141,-3.9185,-3.9253,-3.9306,-3.9323,-3.9374,-3.9412,-3.9403,-3.9425,-3.9422,-3.9427,-3.9295,-3.9275,-3.9432,-3.9432,-3.9432,-3.9432,-3.9432,-3.9432,-3.8928,-3.901,-3.9012,-3.9107,-3.9125,-3.9189,-3.9213,-3.9244,-3.9269,-3.9346,-3.939,-3.94,-3.9426,-3.9479,-3.9526,-3.953,-3.9549,-3.9577,-3.9576,-3.9453,-3.9436,-3.942,-3.94,-3.9581,-3.9581,-3.9703,-3.9704,-3.9705]}]]